index,time,SiteAddr,SiteName,app,area,date,device_id,gps_alt,gps_fix,gps_lat,gps_lon,gps_num,name,s_d0,s_d1,s_d2,s_h0,s_t0,timestamp
0,10:07:19,高雄市維新國小 高雄市永安區維新路光明九巷69-10號,高雄市市立維新國小(2018),AirBox,kaohsiung,2024-03-22,74DA38F20BC0,2.0,1.0,22.802,120.247,9.0,高雄市永安區維新國小,0.0,0.0,0.0,100.0,24.5,2024-03-22T10:07:19Z
1,10:13:47,高雄市維新國小 高雄市永安區維新路光明九巷69-10號,高雄市市立維新國小(2018),AirBox,kaohsiung,2024-03-22,74DA38F20BC0,2.0,1.0,22.802,120.247,9.0,高雄市永安區維新國小,0.0,0.0,0.0,100.0,24.37,2024-03-22T10:13:47Z
2,10:20:15,高雄市維新國小 高雄市永安區維新路光明九巷69-10號,高雄市市立維新國小(2018),AirBox,kaohsiung,2024-03-22,74DA38F20BC0,2.0,1.0,22.802,120.247,9.0,高雄市永安區維新國小,0.0,0.0,0.0,100.0,24.37,2024-03-22T10:20:15Z
3,10:33:27,高雄市維新國小 高雄市永安區維新路光明九巷69-10號,高雄市市立維新國小(2018),AirBox,kaohsiung,2024-03-22,74DA38F20BC0,2.0,1.0,22.802,120.247,9.0,高雄市永安區維新國小,0.0,0.0,0.0,100.0,24.5,2024-03-22T10:33:27Z
4,10:39:55,高雄市維新國小 高雄市永安區維新路光明九巷69-10號,高雄市市立維新國小(2018),AirBox,kaohsiung,2024-03-22,74DA38F20BC0,2.0,1.0,22.802,120.247,9.0,高雄市永安區維新國小,0.0,0.0,0.0,100.0,24.5,2024-03-22T10:39:55Z
5,10:46:22,高雄市維新國小 高雄市永安區維新路光明九巷69-10號,高雄市市立維新國小(2018),AirBox,kaohsiung,2024-03-22,74DA38F20BC0,2.0,1.0,22.802,120.247,9.0,高雄市永安區維新國小,0.0,0.0,0.0,100.0,24.5,2024-03-22T10:46:22Z
6,10:52:52,高雄市維新國小 高雄市永安區維新路光明九巷69-10號,高雄市市立維新國小(2018),AirBox,kaohsiung,2024-03-22,74DA38F20BC0,2.0,1.0,22.802,120.247,9.0,高雄市永安區維新國小,0.0,0.0,0.0,100.0,24.5,2024-03-22T10:52:52Z
7,10:59:21,高雄市維新國小 高雄市永安區維新路光明九巷69-10號,高雄市市立維新國小(2018),AirBox,kaohsiung,2024-03-22,74DA38F20BC0,2.0,1.0,22.802,120.247,9.0,高雄市永安區維新國小,0.0,0.0,0.0,100.0,24.62,2024-03-22T10:59:21Z
8,11:05:47,高雄市維新國小 高雄市永安區維新路光明九巷69-10號,高雄市市立維新國小(2018),AirBox,kaohsiung,2024-03-22,74DA38F20BC0,2.0,1.0,22.802,120.247,9.0,高雄市永安區維新國小,0.0,0.0,0.0,100.0,24.62,2024-03-22T11:05:47Z
9,11:12:15,高雄市維新國小 高雄市永安區維新路光明九巷69-10號,高雄市市立維新國小(2018),AirBox,kaohsiung,2024-03-22,74DA38F20BC0,2.0,1.0,22.802,120.247,9.0,高雄市永安區維新國小,0.0,0.0,0.0,100.0,24.62,2024-03-22T11:12:15Z
10,11:18:41,高雄市維新國小 高雄市永安區維新路光明九巷69-10號,高雄市市立維新國小(2018),AirBox,kaohsiung,2024-03-22,74DA38F20BC0,2.0,1.0,22.802,120.247,9.0,高雄市永安區維新國小,0.0,0.0,0.0,100.0,24.5,2024-03-22T11:18:41Z
11,11:25:09,高雄市維新國小 高雄市永安區維新路光明九巷69-10號,高雄市市立維新國小(2018),AirBox,kaohsiung,2024-03-22,74DA38F20BC0,2.0,1.0,22.802,120.247,9.0,高雄市永安區維新國小,0.0,0.0,0.0,100.0,24.5,2024-03-22T11:25:09Z
12,11:31:37,高雄市維新國小 高雄市永安區維新路光明九巷69-10號,高雄市市立維新國小(2018),AirBox,kaohsiung,2024-03-22,74DA38F20BC0,2.0,1.0,22.802,120.247,9.0,高雄市永安區維新國小,0.0,0.0,0.0,100.0,24.5,2024-03-22T11:31:37Z
13,11:38:03,高雄市維新國小 高雄市永安區維新路光明九巷69-10號,高雄市市立維新國小(2018),AirBox,kaohsiung,2024-03-22,74DA38F20BC0,2.0,1.0,22.802,120.247,9.0,高雄市永安區維新國小,0.0,0.0,0.0,100.0,24.37,2024-03-22T11:38:03Z
14,11:44:31,高雄市維新國小 高雄市永安區維新路光明九巷69-10號,高雄市市立維新國小(2018),AirBox,kaohsiung,2024-03-22,74DA38F20BC0,2.0,1.0,22.802,120.247,9.0,高雄市永安區維新國小,0.0,0.0,0.0,100.0,24.37,2024-03-22T11:44:31Z
15,11:50:58,高雄市維新國小 高雄市永安區維新路光明九巷69-10號,高雄市市立維新國小(2018),AirBox,kaohsiung,2024-03-22,74DA38F20BC0,2.0,1.0,22.802,120.247,9.0,高雄市永安區維新國小,0.0,0.0,0.0,100.0,24.37,2024-03-22T11:50:58Z
16,11:57:25,高雄市維新國小 高雄市永安區維新路光明九巷69-10號,高雄市市立維新國小(2018),AirBox,kaohsiung,2024-03-22,74DA38F20BC0,2.0,1.0,22.802,120.247,9.0,高雄市永安區維新國小,0.0,0.0,0.0,100.0,24.37,2024-03-22T11:57:25Z
17,12:03:54,高雄市維新國小 高雄市永安區維新路光明九巷69-10號,高雄市市立維新國小(2018),AirBox,kaohsiung,2024-03-22,74DA38F20BC0,2.0,1.0,22.802,120.247,9.0,高雄市永安區維新國小,0.0,0.0,0.0,100.0,24.25,2024-03-22T12:03:54Z
18,12:10:22,高雄市維新國小 高雄市永安區維新路光明九巷69-10號,高雄市市立維新國小(2018),AirBox,kaohsiung,2024-03-22,74DA38F20BC0,2.0,1.0,22.802,120.247,9.0,高雄市永安區維新國小,0.0,0.0,0.0,100.0,24.37,2024-03-22T12:10:22Z
19,12:16:49,高雄市維新國小 高雄市永安區維新路光明九巷69-10號,高雄市市立維新國小(2018),AirBox,kaohsiung,2024-03-22,74DA38F20BC0,2.0,1.0,22.802,120.247,9.0,高雄市永安區維新國小,0.0,0.0,0.0,100.0,24.25,2024-03-22T12:16:49Z
20,12:23:35,高雄市維新國小 高雄市永安區維新路光明九巷69-10號,高雄市市立維新國小(2018),AirBox,kaohsiung,2024-03-22,74DA38F20BC0,2.0,1.0,22.802,120.247,9.0,高雄市永安區維新國小,0.0,0.0,0.0,100.0,24.25,2024-03-22T12:23:35Z
21,12:30:03,高雄市維新國小 高雄市永安區維新路光明九巷69-10號,高雄市市立維新國小(2018),AirBox,kaohsiung,2024-03-22,74DA38F20BC0,2.0,1.0,22.802,120.247,9.0,高雄市永安區維新國小,0.0,0.0,0.0,100.0,24.25,2024-03-22T12:30:03Z
22,12:36:31,高雄市維新國小 高雄市永安區維新路光明九巷69-10號,高雄市市立維新國小(2018),AirBox,kaohsiung,2024-03-22,74DA38F20BC0,2.0,1.0,22.802,120.247,9.0,高雄市永安區維新國小,0.0,0.0,0.0,100.0,24.12,2024-03-22T12:36:31Z
23,12:43:01,高雄市維新國小 高雄市永安區維新路光明九巷69-10號,高雄市市立維新國小(2018),AirBox,kaohsiung,2024-03-22,74DA38F20BC0,2.0,1.0,22.802,120.247,9.0,高雄市永安區維新國小,0.0,0.0,0.0,100.0,24.25,2024-03-22T12:43:01Z
24,12:49:29,高雄市維新國小 高雄市永安區維新路光明九巷69-10號,高雄市市立維新國小(2018),AirBox,kaohsiung,2024-03-22,74DA38F20BC0,2.0,1.0,22.802,120.247,9.0,高雄市永安區維新國小,0.0,0.0,0.0,100.0,24.25,2024-03-22T12:49:29Z
25,12:55:57,高雄市維新國小 高雄市永安區維新路光明九巷69-10號,高雄市市立維新國小(2018),AirBox,kaohsiung,2024-03-22,74DA38F20BC0,2.0,1.0,22.802,120.247,9.0,高雄市永安區維新國小,0.0,0.0,0.0,100.0,24.25,2024-03-22T12:55:57Z
26,13:02:26,高雄市維新國小 高雄市永安區維新路光明九巷69-10號,高雄市市立維新國小(2018),AirBox,kaohsiung,2024-03-22,74DA38F20BC0,2.0,1.0,22.802,120.247,9.0,高雄市永安區維新國小,0.0,0.0,0.0,100.0,24.25,2024-03-22T13:02:26Z
27,13:08:54,高雄市維新國小 高雄市永安區維新路光明九巷69-10號,高雄市市立維新國小(2018),AirBox,kaohsiung,2024-03-22,74DA38F20BC0,2.0,1.0,22.802,120.247,9.0,高雄市永安區維新國小,0.0,0.0,0.0,100.0,24.25,2024-03-22T13:08:54Z
28,13:15:21,高雄市維新國小 高雄市永安區維新路光明九巷69-10號,高雄市市立維新國小(2018),AirBox,kaohsiung,2024-03-22,74DA38F20BC0,2.0,1.0,22.802,120.247,9.0,高雄市永安區維新國小,0.0,0.0,0.0,100.0,24.25,2024-03-22T13:15:21Z
29,13:21:52,高雄市維新國小 高雄市永安區維新路光明九巷69-10號,高雄市市立維新國小(2018),AirBox,kaohsiung,2024-03-22,74DA38F20BC0,2.0,1.0,22.802,120.247,9.0,高雄市永安區維新國小,0.0,0.0,0.0,100.0,24.25,2024-03-22T13:21:52Z
30,13:28:19,高雄市維新國小 高雄市永安區維新路光明九巷69-10號,高雄市市立維新國小(2018),AirBox,kaohsiung,2024-03-22,74DA38F20BC0,2.0,1.0,22.802,120.247,9.0,高雄市永安區維新國小,0.0,0.0,0.0,100.0,24.25,2024-03-22T13:28:19Z
31,13:34:46,高雄市維新國小 高雄市永安區維新路光明九巷69-10號,高雄市市立維新國小(2018),AirBox,kaohsiung,2024-03-22,74DA38F20BC0,2.0,1.0,22.802,120.247,9.0,高雄市永安區維新國小,0.0,0.0,0.0,100.0,24.25,2024-03-22T13:34:46Z
32,13:41:14,高雄市維新國小 高雄市永安區維新路光明九巷69-10號,高雄市市立維新國小(2018),AirBox,kaohsiung,2024-03-22,74DA38F20BC0,2.0,1.0,22.802,120.247,9.0,高雄市永安區維新國小,0.0,0.0,0.0,100.0,24.25,2024-03-22T13:41:14Z
33,13:47:40,高雄市維新國小 高雄市永安區維新路光明九巷69-10號,高雄市市立維新國小(2018),AirBox,kaohsiung,2024-03-22,74DA38F20BC0,2.0,1.0,22.802,120.247,9.0,高雄市永安區維新國小,0.0,0.0,0.0,100.0,24.25,2024-03-22T13:47:40Z
34,13:54:08,高雄市維新國小 高雄市永安區維新路光明九巷69-10號,高雄市市立維新國小(2018),AirBox,kaohsiung,2024-03-22,74DA38F20BC0,2.0,1.0,22.802,120.247,9.0,高雄市永安區維新國小,0.0,0.0,0.0,100.0,24.25,2024-03-22T13:54:08Z
35,14:00:36,高雄市維新國小 高雄市永安區維新路光明九巷69-10號,高雄市市立維新國小(2018),AirBox,kaohsiung,2024-03-22,74DA38F20BC0,2.0,1.0,22.802,120.247,9.0,高雄市永安區維新國小,0.0,0.0,0.0,100.0,24.37,2024-03-22T14:00:36Z
36,14:07:03,高雄市維新國小 高雄市永安區維新路光明九巷69-10號,高雄市市立維新國小(2018),AirBox,kaohsiung,2024-03-22,74DA38F20BC0,2.0,1.0,22.802,120.247,9.0,高雄市永安區維新國小,0.0,0.0,0.0,100.0,24.37,2024-03-22T14:07:03Z
37,14:13:30,高雄市維新國小 高雄市永安區維新路光明九巷69-10號,高雄市市立維新國小(2018),AirBox,kaohsiung,2024-03-22,74DA38F20BC0,2.0,1.0,22.802,120.247,9.0,高雄市永安區維新國小,0.0,0.0,0.0,100.0,24.25,2024-03-22T14:13:30Z
38,14:19:57,高雄市維新國小 高雄市永安區維新路光明九巷69-10號,高雄市市立維新國小(2018),AirBox,kaohsiung,2024-03-22,74DA38F20BC0,2.0,1.0,22.802,120.247,9.0,高雄市永安區維新國小,0.0,0.0,0.0,100.0,24.25,2024-03-22T14:19:57Z
39,14:26:36,高雄市維新國小 高雄市永安區維新路光明九巷69-10號,高雄市市立維新國小(2018),AirBox,kaohsiung,2024-03-22,74DA38F20BC0,2.0,1.0,22.802,120.247,9.0,高雄市永安區維新國小,0.0,0.0,0.0,100.0,24.25,2024-03-22T14:26:36Z
40,14:33:05,高雄市維新國小 高雄市永安區維新路光明九巷69-10號,高雄市市立維新國小(2018),AirBox,kaohsiung,2024-03-22,74DA38F20BC0,2.0,1.0,22.802,120.247,9.0,高雄市永安區維新國小,0.0,0.0,0.0,100.0,24.25,2024-03-22T14:33:05Z
41,14:39:34,高雄市維新國小 高雄市永安區維新路光明九巷69-10號,高雄市市立維新國小(2018),AirBox,kaohsiung,2024-03-22,74DA38F20BC0,2.0,1.0,22.802,120.247,9.0,高雄市永安區維新國小,0.0,0.0,0.0,100.0,24.25,2024-03-22T14:39:34Z
42,14:46:03,高雄市維新國小 高雄市永安區維新路光明九巷69-10號,高雄市市立維新國小(2018),AirBox,kaohsiung,2024-03-22,74DA38F20BC0,2.0,1.0,22.802,120.247,9.0,高雄市永安區維新國小,0.0,0.0,0.0,100.0,24.25,2024-03-22T14:46:03Z
43,14:52:29,高雄市維新國小 高雄市永安區維新路光明九巷69-10號,高雄市市立維新國小(2018),AirBox,kaohsiung,2024-03-22,74DA38F20BC0,2.0,1.0,22.802,120.247,9.0,高雄市永安區維新國小,0.0,0.0,0.0,100.0,24.12,2024-03-22T14:52:29Z
44,14:58:57,高雄市維新國小 高雄市永安區維新路光明九巷69-10號,高雄市市立維新國小(2018),AirBox,kaohsiung,2024-03-22,74DA38F20BC0,2.0,1.0,22.802,120.247,9.0,高雄市永安區維新國小,0.0,0.0,0.0,100.0,24.12,2024-03-22T14:58:57Z
45,15:05:24,高雄市維新國小 高雄市永安區維新路光明九巷69-10號,高雄市市立維新國小(2018),AirBox,kaohsiung,2024-03-22,74DA38F20BC0,2.0,1.0,22.802,120.247,9.0,高雄市永安區維新國小,0.0,0.0,0.0,100.0,24.12,2024-03-22T15:05:24Z
46,15:11:51,高雄市維新國小 高雄市永安區維新路光明九巷69-10號,高雄市市立維新國小(2018),AirBox,kaohsiung,2024-03-22,74DA38F20BC0,2.0,1.0,22.802,120.247,9.0,高雄市永安區維新國小,0.0,0.0,0.0,100.0,24.0,2024-03-22T15:11:51Z
47,15:18:19,高雄市維新國小 高雄市永安區維新路光明九巷69-10號,高雄市市立維新國小(2018),AirBox,kaohsiung,2024-03-22,74DA38F20BC0,2.0,1.0,22.802,120.247,9.0,高雄市永安區維新國小,0.0,0.0,0.0,100.0,24.0,2024-03-22T15:18:19Z
48,15:24:46,高雄市維新國小 高雄市永安區維新路光明九巷69-10號,高雄市市立維新國小(2018),AirBox,kaohsiung,2024-03-22,74DA38F20BC0,2.0,1.0,22.802,120.247,9.0,高雄市永安區維新國小,0.0,0.0,0.0,100.0,24.0,2024-03-22T15:24:46Z
49,15:31:13,高雄市維新國小 高雄市永安區維新路光明九巷69-10號,高雄市市立維新國小(2018),AirBox,kaohsiung,2024-03-22,74DA38F20BC0,2.0,1.0,22.802,120.247,9.0,高雄市永安區維新國小,0.0,0.0,0.0,100.0,24.0,2024-03-22T15:31:13Z
50,15:37:40,高雄市維新國小 高雄市永安區維新路光明九巷69-10號,高雄市市立維新國小(2018),AirBox,kaohsiung,2024-03-22,74DA38F20BC0,2.0,1.0,22.802,120.247,9.0,高雄市永安區維新國小,0.0,0.0,0.0,100.0,24.0,2024-03-22T15:37:40Z
51,15:44:09,高雄市維新國小 高雄市永安區維新路光明九巷69-10號,高雄市市立維新國小(2018),AirBox,kaohsiung,2024-03-22,74DA38F20BC0,2.0,1.0,22.802,120.247,9.0,高雄市永安區維新國小,0.0,0.0,0.0,100.0,23.87,2024-03-22T15:44:09Z
52,15:50:37,高雄市維新國小 高雄市永安區維新路光明九巷69-10號,高雄市市立維新國小(2018),AirBox,kaohsiung,2024-03-22,74DA38F20BC0,2.0,1.0,22.802,120.247,9.0,高雄市永安區維新國小,0.0,0.0,0.0,100.0,23.87,2024-03-22T15:50:37Z
53,15:57:08,高雄市維新國小 高雄市永安區維新路光明九巷69-10號,高雄市市立維新國小(2018),AirBox,kaohsiung,2024-03-22,74DA38F20BC0,2.0,1.0,22.802,120.247,9.0,高雄市永安區維新國小,0.0,0.0,0.0,100.0,23.75,2024-03-22T15:57:08Z
54,16:03:35,高雄市維新國小 高雄市永安區維新路光明九巷69-10號,高雄市市立維新國小(2018),AirBox,kaohsiung,2024-03-22,74DA38F20BC0,2.0,1.0,22.802,120.247,9.0,高雄市永安區維新國小,0.0,0.0,0.0,100.0,23.62,2024-03-22T16:03:35Z
55,16:10:04,高雄市維新國小 高雄市永安區維新路光明九巷69-10號,高雄市市立維新國小(2018),AirBox,kaohsiung,2024-03-22,74DA38F20BC0,2.0,1.0,22.802,120.247,9.0,高雄市永安區維新國小,0.0,0.0,0.0,100.0,23.75,2024-03-22T16:10:04Z
56,16:16:53,高雄市維新國小 高雄市永安區維新路光明九巷69-10號,高雄市市立維新國小(2018),AirBox,kaohsiung,2024-03-22,74DA38F20BC0,2.0,1.0,22.802,120.247,9.0,高雄市永安區維新國小,0.0,0.0,0.0,100.0,23.62,2024-03-22T16:16:53Z
57,16:23:23,高雄市維新國小 高雄市永安區維新路光明九巷69-10號,高雄市市立維新國小(2018),AirBox,kaohsiung,2024-03-22,74DA38F20BC0,2.0,1.0,22.802,120.247,9.0,高雄市永安區維新國小,0.0,0.0,0.0,100.0,23.75,2024-03-22T16:23:23Z
58,16:29:51,高雄市維新國小 高雄市永安區維新路光明九巷69-10號,高雄市市立維新國小(2018),AirBox,kaohsiung,2024-03-22,74DA38F20BC0,2.0,1.0,22.802,120.247,9.0,高雄市永安區維新國小,0.0,0.0,0.0,100.0,23.62,2024-03-22T16:29:51Z
59,16:36:19,高雄市維新國小 高雄市永安區維新路光明九巷69-10號,高雄市市立維新國小(2018),AirBox,kaohsiung,2024-03-22,74DA38F20BC0,2.0,1.0,22.802,120.247,9.0,高雄市永安區維新國小,0.0,0.0,0.0,100.0,23.5,2024-03-22T16:36:19Z
60,16:42:45,高雄市維新國小 高雄市永安區維新路光明九巷69-10號,高雄市市立維新國小(2018),AirBox,kaohsiung,2024-03-22,74DA38F20BC0,2.0,1.0,22.802,120.247,9.0,高雄市永安區維新國小,0.0,0.0,0.0,100.0,23.62,2024-03-22T16:42:45Z
61,16:49:12,高雄市維新國小 高雄市永安區維新路光明九巷69-10號,高雄市市立維新國小(2018),AirBox,kaohsiung,2024-03-22,74DA38F20BC0,2.0,1.0,22.802,120.247,9.0,高雄市永安區維新國小,0.0,0.0,0.0,100.0,23.5,2024-03-22T16:49:12Z
62,16:55:40,高雄市維新國小 高雄市永安區維新路光明九巷69-10號,高雄市市立維新國小(2018),AirBox,kaohsiung,2024-03-22,74DA38F20BC0,2.0,1.0,22.802,120.247,9.0,高雄市永安區維新國小,0.0,0.0,0.0,100.0,23.5,2024-03-22T16:55:40Z
63,17:02:09,高雄市維新國小 高雄市永安區維新路光明九巷69-10號,高雄市市立維新國小(2018),AirBox,kaohsiung,2024-03-22,74DA38F20BC0,2.0,1.0,22.802,120.247,9.0,高雄市永安區維新國小,0.0,0.0,0.0,100.0,23.5,2024-03-22T17:02:09Z
64,17:08:37,高雄市維新國小 高雄市永安區維新路光明九巷69-10號,高雄市市立維新國小(2018),AirBox,kaohsiung,2024-03-22,74DA38F20BC0,2.0,1.0,22.802,120.247,9.0,高雄市永安區維新國小,0.0,0.0,0.0,100.0,23.5,2024-03-22T17:08:37Z
65,17:15:07,高雄市維新國小 高雄市永安區維新路光明九巷69-10號,高雄市市立維新國小(2018),AirBox,kaohsiung,2024-03-22,74DA38F20BC0,2.0,1.0,22.802,120.247,9.0,高雄市永安區維新國小,0.0,0.0,0.0,100.0,23.62,2024-03-22T17:15:07Z
66,17:21:35,高雄市維新國小 高雄市永安區維新路光明九巷69-10號,高雄市市立維新國小(2018),AirBox,kaohsiung,2024-03-22,74DA38F20BC0,2.0,1.0,22.802,120.247,9.0,高雄市永安區維新國小,0.0,0.0,0.0,100.0,23.75,2024-03-22T17:21:35Z
67,17:28:02,高雄市維新國小 高雄市永安區維新路光明九巷69-10號,高雄市市立維新國小(2018),AirBox,kaohsiung,2024-03-22,74DA38F20BC0,2.0,1.0,22.802,120.247,9.0,高雄市永安區維新國小,0.0,0.0,0.0,100.0,23.62,2024-03-22T17:28:02Z
68,17:34:30,高雄市維新國小 高雄市永安區維新路光明九巷69-10號,高雄市市立維新國小(2018),AirBox,kaohsiung,2024-03-22,74DA38F20BC0,2.0,1.0,22.802,120.247,9.0,高雄市永安區維新國小,0.0,0.0,0.0,100.0,23.62,2024-03-22T17:34:30Z
69,17:40:58,高雄市維新國小 高雄市永安區維新路光明九巷69-10號,高雄市市立維新國小(2018),AirBox,kaohsiung,2024-03-22,74DA38F20BC0,2.0,1.0,22.802,120.247,9.0,高雄市永安區維新國小,0.0,0.0,0.0,100.0,23.5,2024-03-22T17:40:58Z
70,17:47:24,高雄市維新國小 高雄市永安區維新路光明九巷69-10號,高雄市市立維新國小(2018),AirBox,kaohsiung,2024-03-22,74DA38F20BC0,2.0,1.0,22.802,120.247,9.0,高雄市永安區維新國小,0.0,0.0,0.0,100.0,23.37,2024-03-22T17:47:24Z
71,17:53:52,高雄市維新國小 高雄市永安區維新路光明九巷69-10號,高雄市市立維新國小(2018),AirBox,kaohsiung,2024-03-22,74DA38F20BC0,2.0,1.0,22.802,120.247,9.0,高雄市永安區維新國小,0.0,0.0,0.0,100.0,23.25,2024-03-22T17:53:52Z
72,18:00:20,高雄市維新國小 高雄市永安區維新路光明九巷69-10號,高雄市市立維新國小(2018),AirBox,kaohsiung,2024-03-22,74DA38F20BC0,2.0,1.0,22.802,120.247,9.0,高雄市永安區維新國小,0.0,0.0,0.0,100.0,23.25,2024-03-22T18:00:20Z
73,18:06:46,高雄市維新國小 高雄市永安區維新路光明九巷69-10號,高雄市市立維新國小(2018),AirBox,kaohsiung,2024-03-22,74DA38F20BC0,2.0,1.0,22.802,120.247,9.0,高雄市永安區維新國小,0.0,0.0,0.0,100.0,23.37,2024-03-22T18:06:46Z
74,18:13:14,高雄市維新國小 高雄市永安區維新路光明九巷69-10號,高雄市市立維新國小(2018),AirBox,kaohsiung,2024-03-22,74DA38F20BC0,2.0,1.0,22.802,120.247,9.0,高雄市永安區維新國小,0.0,0.0,0.0,100.0,23.37,2024-03-22T18:13:14Z
75,18:19:42,高雄市維新國小 高雄市永安區維新路光明九巷69-10號,高雄市市立維新國小(2018),AirBox,kaohsiung,2024-03-22,74DA38F20BC0,2.0,1.0,22.802,120.247,9.0,高雄市永安區維新國小,0.0,0.0,0.0,100.0,23.37,2024-03-22T18:19:42Z
76,18:26:08,高雄市維新國小 高雄市永安區維新路光明九巷69-10號,高雄市市立維新國小(2018),AirBox,kaohsiung,2024-03-22,74DA38F20BC0,2.0,1.0,22.802,120.247,9.0,高雄市永安區維新國小,0.0,0.0,0.0,100.0,23.37,2024-03-22T18:26:08Z
77,18:32:36,高雄市維新國小 高雄市永安區維新路光明九巷69-10號,高雄市市立維新國小(2018),AirBox,kaohsiung,2024-03-22,74DA38F20BC0,2.0,1.0,22.802,120.247,9.0,高雄市永安區維新國小,0.0,0.0,0.0,100.0,23.5,2024-03-22T18:32:36Z
78,18:39:04,高雄市維新國小 高雄市永安區維新路光明九巷69-10號,高雄市市立維新國小(2018),AirBox,kaohsiung,2024-03-22,74DA38F20BC0,2.0,1.0,22.802,120.247,9.0,高雄市永安區維新國小,0.0,0.0,0.0,100.0,23.37,2024-03-22T18:39:04Z
79,18:45:30,高雄市維新國小 高雄市永安區維新路光明九巷69-10號,高雄市市立維新國小(2018),AirBox,kaohsiung,2024-03-22,74DA38F20BC0,2.0,1.0,22.802,120.247,9.0,高雄市永安區維新國小,0.0,0.0,0.0,100.0,23.25,2024-03-22T18:45:30Z
80,18:51:58,高雄市維新國小 高雄市永安區維新路光明九巷69-10號,高雄市市立維新國小(2018),AirBox,kaohsiung,2024-03-22,74DA38F20BC0,2.0,1.0,22.802,120.247,9.0,高雄市永安區維新國小,0.0,0.0,0.0,100.0,23.12,2024-03-22T18:51:58Z
81,18:58:27,高雄市維新國小 高雄市永安區維新路光明九巷69-10號,高雄市市立維新國小(2018),AirBox,kaohsiung,2024-03-22,74DA38F20BC0,2.0,1.0,22.802,120.247,9.0,高雄市永安區維新國小,0.0,0.0,0.0,100.0,23.25,2024-03-22T18:58:27Z
82,19:04:56,高雄市維新國小 高雄市永安區維新路光明九巷69-10號,高雄市市立維新國小(2018),AirBox,kaohsiung,2024-03-22,74DA38F20BC0,2.0,1.0,22.802,120.247,9.0,高雄市永安區維新國小,0.0,0.0,0.0,100.0,23.25,2024-03-22T19:04:56Z
83,19:11:24,高雄市維新國小 高雄市永安區維新路光明九巷69-10號,高雄市市立維新國小(2018),AirBox,kaohsiung,2024-03-22,74DA38F20BC0,2.0,1.0,22.802,120.247,9.0,高雄市永安區維新國小,0.0,0.0,0.0,100.0,23.12,2024-03-22T19:11:24Z
84,19:17:50,高雄市維新國小 高雄市永安區維新路光明九巷69-10號,高雄市市立維新國小(2018),AirBox,kaohsiung,2024-03-22,74DA38F20BC0,2.0,1.0,22.802,120.247,9.0,高雄市永安區維新國小,0.0,0.0,0.0,100.0,23.12,2024-03-22T19:17:50Z
85,19:24:18,高雄市維新國小 高雄市永安區維新路光明九巷69-10號,高雄市市立維新國小(2018),AirBox,kaohsiung,2024-03-22,74DA38F20BC0,2.0,1.0,22.802,120.247,9.0,高雄市永安區維新國小,0.0,0.0,0.0,100.0,23.25,2024-03-22T19:24:18Z
86,19:30:45,高雄市維新國小 高雄市永安區維新路光明九巷69-10號,高雄市市立維新國小(2018),AirBox,kaohsiung,2024-03-22,74DA38F20BC0,2.0,1.0,22.802,120.247,9.0,高雄市永安區維新國小,0.0,0.0,0.0,100.0,23.25,2024-03-22T19:30:45Z
87,19:37:12,高雄市維新國小 高雄市永安區維新路光明九巷69-10號,高雄市市立維新國小(2018),AirBox,kaohsiung,2024-03-22,74DA38F20BC0,2.0,1.0,22.802,120.247,9.0,高雄市永安區維新國小,0.0,0.0,0.0,100.0,23.37,2024-03-22T19:37:12Z
88,19:43:40,高雄市維新國小 高雄市永安區維新路光明九巷69-10號,高雄市市立維新國小(2018),AirBox,kaohsiung,2024-03-22,74DA38F20BC0,2.0,1.0,22.802,120.247,9.0,高雄市永安區維新國小,0.0,0.0,0.0,100.0,23.37,2024-03-22T19:43:40Z
89,19:50:09,高雄市維新國小 高雄市永安區維新路光明九巷69-10號,高雄市市立維新國小(2018),AirBox,kaohsiung,2024-03-22,74DA38F20BC0,2.0,1.0,22.802,120.247,9.0,高雄市永安區維新國小,0.0,0.0,0.0,100.0,23.25,2024-03-22T19:50:09Z
90,19:56:37,高雄市維新國小 高雄市永安區維新路光明九巷69-10號,高雄市市立維新國小(2018),AirBox,kaohsiung,2024-03-22,74DA38F20BC0,2.0,1.0,22.802,120.247,9.0,高雄市永安區維新國小,0.0,0.0,0.0,100.0,23.25,2024-03-22T19:56:37Z
91,20:03:05,高雄市維新國小 高雄市永安區維新路光明九巷69-10號,高雄市市立維新國小(2018),AirBox,kaohsiung,2024-03-22,74DA38F20BC0,2.0,1.0,22.802,120.247,9.0,高雄市永安區維新國小,0.0,0.0,0.0,100.0,23.0,2024-03-22T20:03:05Z
92,20:09:32,高雄市維新國小 高雄市永安區維新路光明九巷69-10號,高雄市市立維新國小(2018),AirBox,kaohsiung,2024-03-22,74DA38F20BC0,2.0,1.0,22.802,120.247,9.0,高雄市永安區維新國小,0.0,0.0,0.0,100.0,22.87,2024-03-22T20:09:32Z
93,20:16:00,高雄市維新國小 高雄市永安區維新路光明九巷69-10號,高雄市市立維新國小(2018),AirBox,kaohsiung,2024-03-22,74DA38F20BC0,2.0,1.0,22.802,120.247,9.0,高雄市永安區維新國小,0.0,0.0,0.0,100.0,23.0,2024-03-22T20:16:00Z
94,20:22:27,高雄市維新國小 高雄市永安區維新路光明九巷69-10號,高雄市市立維新國小(2018),AirBox,kaohsiung,2024-03-22,74DA38F20BC0,2.0,1.0,22.802,120.247,9.0,高雄市永安區維新國小,0.0,0.0,0.0,100.0,23.12,2024-03-22T20:22:27Z
95,20:28:54,高雄市維新國小 高雄市永安區維新路光明九巷69-10號,高雄市市立維新國小(2018),AirBox,kaohsiung,2024-03-22,74DA38F20BC0,2.0,1.0,22.802,120.247,9.0,高雄市永安區維新國小,0.0,0.0,0.0,100.0,22.87,2024-03-22T20:28:54Z
96,20:35:21,高雄市維新國小 高雄市永安區維新路光明九巷69-10號,高雄市市立維新國小(2018),AirBox,kaohsiung,2024-03-22,74DA38F20BC0,2.0,1.0,22.802,120.247,9.0,高雄市永安區維新國小,0.0,0.0,0.0,100.0,22.87,2024-03-22T20:35:21Z
97,20:41:49,高雄市維新國小 高雄市永安區維新路光明九巷69-10號,高雄市市立維新國小(2018),AirBox,kaohsiung,2024-03-22,74DA38F20BC0,2.0,1.0,22.802,120.247,9.0,高雄市永安區維新國小,0.0,0.0,0.0,100.0,22.75,2024-03-22T20:41:49Z
98,20:48:16,高雄市維新國小 高雄市永安區維新路光明九巷69-10號,高雄市市立維新國小(2018),AirBox,kaohsiung,2024-03-22,74DA38F20BC0,2.0,1.0,22.802,120.247,9.0,高雄市永安區維新國小,0.0,0.0,0.0,100.0,22.75,2024-03-22T20:48:16Z
99,20:54:43,高雄市維新國小 高雄市永安區維新路光明九巷69-10號,高雄市市立維新國小(2018),AirBox,kaohsiung,2024-03-22,74DA38F20BC0,2.0,1.0,22.802,120.247,9.0,高雄市永安區維新國小,0.0,0.0,0.0,100.0,22.75,2024-03-22T20:54:43Z
100,21:01:11,高雄市維新國小 高雄市永安區維新路光明九巷69-10號,高雄市市立維新國小(2018),AirBox,kaohsiung,2024-03-22,74DA38F20BC0,2.0,1.0,22.802,120.247,9.0,高雄市永安區維新國小,0.0,0.0,0.0,100.0,22.62,2024-03-22T21:01:11Z
101,21:07:38,高雄市維新國小 高雄市永安區維新路光明九巷69-10號,高雄市市立維新國小(2018),AirBox,kaohsiung,2024-03-22,74DA38F20BC0,2.0,1.0,22.802,120.247,9.0,高雄市永安區維新國小,0.0,0.0,0.0,100.0,22.62,2024-03-22T21:07:38Z
102,21:14:06,高雄市維新國小 高雄市永安區維新路光明九巷69-10號,高雄市市立維新國小(2018),AirBox,kaohsiung,2024-03-22,74DA38F20BC0,2.0,1.0,22.802,120.247,9.0,高雄市永安區維新國小,0.0,0.0,0.0,100.0,22.5,2024-03-22T21:14:06Z
103,21:20:34,高雄市維新國小 高雄市永安區維新路光明九巷69-10號,高雄市市立維新國小(2018),AirBox,kaohsiung,2024-03-22,74DA38F20BC0,2.0,1.0,22.802,120.247,9.0,高雄市永安區維新國小,0.0,0.0,0.0,100.0,22.37,2024-03-22T21:20:34Z
104,21:27:00,高雄市維新國小 高雄市永安區維新路光明九巷69-10號,高雄市市立維新國小(2018),AirBox,kaohsiung,2024-03-22,74DA38F20BC0,2.0,1.0,22.802,120.247,9.0,高雄市永安區維新國小,0.0,0.0,0.0,100.0,22.5,2024-03-22T21:27:00Z
105,21:33:28,高雄市維新國小 高雄市永安區維新路光明九巷69-10號,高雄市市立維新國小(2018),AirBox,kaohsiung,2024-03-22,74DA38F20BC0,2.0,1.0,22.802,120.247,9.0,高雄市永安區維新國小,0.0,0.0,0.0,100.0,22.5,2024-03-22T21:33:28Z
106,21:39:55,高雄市維新國小 高雄市永安區維新路光明九巷69-10號,高雄市市立維新國小(2018),AirBox,kaohsiung,2024-03-22,74DA38F20BC0,2.0,1.0,22.802,120.247,9.0,高雄市永安區維新國小,0.0,0.0,0.0,100.0,22.25,2024-03-22T21:39:55Z
107,21:46:22,高雄市維新國小 高雄市永安區維新路光明九巷69-10號,高雄市市立維新國小(2018),AirBox,kaohsiung,2024-03-22,74DA38F20BC0,2.0,1.0,22.802,120.247,9.0,高雄市永安區維新國小,0.0,0.0,0.0,100.0,22.25,2024-03-22T21:46:22Z
108,21:52:50,高雄市維新國小 高雄市永安區維新路光明九巷69-10號,高雄市市立維新國小(2018),AirBox,kaohsiung,2024-03-22,74DA38F20BC0,2.0,1.0,22.802,120.247,9.0,高雄市永安區維新國小,0.0,0.0,0.0,100.0,22.37,2024-03-22T21:52:50Z
109,21:59:17,高雄市維新國小 高雄市永安區維新路光明九巷69-10號,高雄市市立維新國小(2018),AirBox,kaohsiung,2024-03-22,74DA38F20BC0,2.0,1.0,22.802,120.247,9.0,高雄市永安區維新國小,0.0,0.0,0.0,100.0,22.37,2024-03-22T21:59:17Z
110,22:05:44,高雄市維新國小 高雄市永安區維新路光明九巷69-10號,高雄市市立維新國小(2018),AirBox,kaohsiung,2024-03-22,74DA38F20BC0,2.0,1.0,22.802,120.247,9.0,高雄市永安區維新國小,0.0,0.0,0.0,100.0,22.37,2024-03-22T22:05:44Z
111,22:12:12,高雄市維新國小 高雄市永安區維新路光明九巷69-10號,高雄市市立維新國小(2018),AirBox,kaohsiung,2024-03-22,74DA38F20BC0,2.0,1.0,22.802,120.247,9.0,高雄市永安區維新國小,0.0,0.0,0.0,100.0,22.62,2024-03-22T22:12:12Z
112,22:18:39,高雄市維新國小 高雄市永安區維新路光明九巷69-10號,高雄市市立維新國小(2018),AirBox,kaohsiung,2024-03-22,74DA38F20BC0,2.0,1.0,22.802,120.247,9.0,高雄市永安區維新國小,0.0,0.0,0.0,100.0,22.62,2024-03-22T22:18:39Z
113,22:25:07,高雄市維新國小 高雄市永安區維新路光明九巷69-10號,高雄市市立維新國小(2018),AirBox,kaohsiung,2024-03-22,74DA38F20BC0,2.0,1.0,22.802,120.247,9.0,高雄市永安區維新國小,0.0,0.0,0.0,100.0,22.62,2024-03-22T22:25:07Z
114,22:31:34,高雄市維新國小 高雄市永安區維新路光明九巷69-10號,高雄市市立維新國小(2018),AirBox,kaohsiung,2024-03-22,74DA38F20BC0,2.0,1.0,22.802,120.247,9.0,高雄市永安區維新國小,0.0,0.0,0.0,100.0,22.75,2024-03-22T22:31:34Z
115,22:38:01,高雄市維新國小 高雄市永安區維新路光明九巷69-10號,高雄市市立維新國小(2018),AirBox,kaohsiung,2024-03-22,74DA38F20BC0,2.0,1.0,22.802,120.247,9.0,高雄市永安區維新國小,0.0,0.0,0.0,100.0,22.75,2024-03-22T22:38:01Z
116,22:44:28,高雄市維新國小 高雄市永安區維新路光明九巷69-10號,高雄市市立維新國小(2018),AirBox,kaohsiung,2024-03-22,74DA38F20BC0,2.0,1.0,22.802,120.247,9.0,高雄市永安區維新國小,0.0,0.0,0.0,100.0,22.87,2024-03-22T22:44:28Z
117,22:50:57,高雄市維新國小 高雄市永安區維新路光明九巷69-10號,高雄市市立維新國小(2018),AirBox,kaohsiung,2024-03-22,74DA38F20BC0,2.0,1.0,22.802,120.247,9.0,高雄市永安區維新國小,0.0,0.0,0.0,100.0,22.87,2024-03-22T22:50:57Z
118,22:57:28,高雄市維新國小 高雄市永安區維新路光明九巷69-10號,高雄市市立維新國小(2018),AirBox,kaohsiung,2024-03-22,74DA38F20BC0,2.0,1.0,22.802,120.247,9.0,高雄市永安區維新國小,0.0,0.0,0.0,100.0,22.87,2024-03-22T22:57:28Z
119,23:03:54,高雄市維新國小 高雄市永安區維新路光明九巷69-10號,高雄市市立維新國小(2018),AirBox,kaohsiung,2024-03-22,74DA38F20BC0,2.0,1.0,22.802,120.247,9.0,高雄市永安區維新國小,0.0,0.0,0.0,100.0,23.0,2024-03-22T23:03:54Z
120,23:10:21,高雄市維新國小 高雄市永安區維新路光明九巷69-10號,高雄市市立維新國小(2018),AirBox,kaohsiung,2024-03-22,74DA38F20BC0,2.0,1.0,22.802,120.247,9.0,高雄市永安區維新國小,0.0,0.0,0.0,100.0,23.12,2024-03-22T23:10:21Z
121,23:16:48,高雄市維新國小 高雄市永安區維新路光明九巷69-10號,高雄市市立維新國小(2018),AirBox,kaohsiung,2024-03-22,74DA38F20BC0,2.0,1.0,22.802,120.247,9.0,高雄市永安區維新國小,0.0,0.0,0.0,100.0,23.25,2024-03-22T23:16:48Z
122,23:23:16,高雄市維新國小 高雄市永安區維新路光明九巷69-10號,高雄市市立維新國小(2018),AirBox,kaohsiung,2024-03-22,74DA38F20BC0,2.0,1.0,22.802,120.247,9.0,高雄市永安區維新國小,0.0,0.0,0.0,100.0,23.37,2024-03-22T23:23:16Z
123,23:29:44,高雄市維新國小 高雄市永安區維新路光明九巷69-10號,高雄市市立維新國小(2018),AirBox,kaohsiung,2024-03-22,74DA38F20BC0,2.0,1.0,22.802,120.247,9.0,高雄市永安區維新國小,0.0,0.0,0.0,100.0,23.62,2024-03-22T23:29:44Z
124,23:36:10,高雄市維新國小 高雄市永安區維新路光明九巷69-10號,高雄市市立維新國小(2018),AirBox,kaohsiung,2024-03-22,74DA38F20BC0,2.0,1.0,22.802,120.247,9.0,高雄市永安區維新國小,0.0,0.0,0.0,100.0,23.75,2024-03-22T23:36:10Z
125,23:42:42,高雄市維新國小 高雄市永安區維新路光明九巷69-10號,高雄市市立維新國小(2018),AirBox,kaohsiung,2024-03-22,74DA38F20BC0,2.0,1.0,22.802,120.247,9.0,高雄市永安區維新國小,0.0,0.0,0.0,100.0,23.87,2024-03-22T23:42:42Z
126,23:49:11,高雄市維新國小 高雄市永安區維新路光明九巷69-10號,高雄市市立維新國小(2018),AirBox,kaohsiung,2024-03-22,74DA38F20BC0,2.0,1.0,22.802,120.247,9.0,高雄市永安區維新國小,0.0,0.0,0.0,100.0,24.12,2024-03-22T23:49:11Z
127,23:55:39,高雄市維新國小 高雄市永安區維新路光明九巷69-10號,高雄市市立維新國小(2018),AirBox,kaohsiung,2024-03-22,74DA38F20BC0,2.0,1.0,22.802,120.247,9.0,高雄市永安區維新國小,0.0,0.0,0.0,100.0,24.25,2024-03-22T23:55:39Z
128,00:02:06,高雄市維新國小 高雄市永安區維新路光明九巷69-10號,高雄市市立維新國小(2018),AirBox,kaohsiung,2024-03-23,74DA38F20BC0,2.0,1.0,22.802,120.247,9.0,高雄市永安區維新國小,0.0,0.0,0.0,100.0,24.37,2024-03-23T00:02:06Z
129,00:08:33,高雄市維新國小 高雄市永安區維新路光明九巷69-10號,高雄市市立維新國小(2018),AirBox,kaohsiung,2024-03-23,74DA38F20BC0,2.0,1.0,22.802,120.247,9.0,高雄市永安區維新國小,0.0,0.0,0.0,100.0,24.62,2024-03-23T00:08:33Z
130,00:15:01,高雄市維新國小 高雄市永安區維新路光明九巷69-10號,高雄市市立維新國小(2018),AirBox,kaohsiung,2024-03-23,74DA38F20BC0,2.0,1.0,22.802,120.247,9.0,高雄市永安區維新國小,0.0,0.0,0.0,100.0,24.62,2024-03-23T00:15:01Z
131,00:21:28,高雄市維新國小 高雄市永安區維新路光明九巷69-10號,高雄市市立維新國小(2018),AirBox,kaohsiung,2024-03-23,74DA38F20BC0,2.0,1.0,22.802,120.247,9.0,高雄市永安區維新國小,0.0,0.0,0.0,100.0,24.75,2024-03-23T00:21:28Z